timestamp,value,label
2017-02-22 08:00:00,1.0099417370000001,0.0
2017-02-23 08:00:00,1.044274495,0.0
2017-02-24 08:00:00,1.03177021,0.0
2017-02-25 08:00:00,1.063396977,0.0
2017-02-26 08:00:00,0.969561807,0.0
2017-02-27 08:00:00,0.9193295340000001,0.0
2017-02-28 08:00:00,1.033028943,0.0
2017-03-01 08:00:00,0.9998363370000001,0.0
2017-03-02 08:00:00,0.991866384,0.0
2017-03-03 08:00:00,1.011108539,0.0
2017-03-04 08:00:00,1.024114262,0.0
2017-03-05 08:00:00,0.925797049,0.0
2017-03-06 08:00:00,1.006685499,0.0
2017-03-07 08:00:00,1.008586993,0.0
2017-03-08 08:00:00,1.007155668,0.0
2017-03-09 08:00:00,1.004409589,0.0
2017-03-10 08:00:00,1.015520948,0.0
2017-03-11 08:00:00,1.015247658,0.0
2017-03-12 08:00:00,1.00063587,0.0
2017-03-13 08:00:00,1.0094858340000001,0.0
2017-03-14 08:00:00,1.007109669,0.0
2017-03-15 08:00:00,1.019057307,0.0
2017-03-16 08:00:00,1.002928262,0.0
2017-03-17 08:00:00,1.006633738,0.0
2017-03-18 08:00:00,1.010550541,0.0
2017-03-19 08:00:00,0.9991403179999999,0.0
2017-03-20 08:00:00,0.959569331,0.0
2017-03-21 08:00:00,1.00526174,0.0
2017-03-22 08:00:00,0.948284433,0.0
2017-03-23 08:00:00,0.9987864559999999,0.0
2017-03-24 08:00:00,1.019592615,0.0
2017-03-25 08:00:00,0.918200893,0.0
2017-03-26 08:00:00,0.914382527,0.0
2017-03-27 08:00:00,0.960759686,0.0
2017-03-28 08:00:00,1.012125473,0.0
2017-03-29 08:00:00,1.016421816,0.0
2017-03-30 08:00:00,1.0250456000000001,0.0
2017-03-31 08:00:00,1.020027023,0.0
2017-04-01 08:00:00,1.009358266,0.0
2017-04-02 08:00:00,1.020444808,0.0
2017-04-03 08:00:00,1.000163663,0.0
2017-04-04 08:00:00,0.998262559,0.0
2017-04-05 08:00:00,0.997293318,0.0
2017-04-06 08:00:00,0.9852851,0.0
2017-04-07 08:00:00,0.9886041790000001,0.0
2017-04-08 08:00:00,0.9012024040000001,0.0
2017-04-09 08:00:00,0.9746567970000001,0.0
2017-04-10 08:00:00,1.0194777940000002,0.0
2017-04-11 08:00:00,1.002149364,0.0
2017-04-12 08:00:00,1.018929163,0.0
2017-04-13 08:00:00,0.875213125,0.0
2017-04-14 08:00:00,0.9578713759999999,0.0
2017-04-15 08:00:00,0.95764165,0.0
2017-04-16 08:00:00,0.966949817,0.0
2017-04-17 08:00:00,0.932918041,0.0
2017-04-18 08:00:00,0.904001798,0.0
2017-04-19 08:00:00,0.950366866,0.0
2017-04-20 08:00:00,0.950595023,0.0
2017-04-21 08:00:00,0.949079205,0.0
2017-04-22 08:00:00,0.949572533,0.0
2017-04-23 08:00:00,0.946251031,0.0
2017-04-24 08:00:00,0.916678972,0.0
2017-04-25 08:00:00,0.926270457,0.0
2017-04-26 08:00:00,0.936153453,0.0
2017-04-27 08:00:00,0.940280742,0.0
2017-04-28 08:00:00,0.939102622,0.0
2017-04-29 08:00:00,0.92808639,0.0
2017-04-30 08:00:00,0.9527611779999999,0.0
2017-05-01 08:00:00,0.949337868,0.0
2017-05-02 08:00:00,0.9473133420000001,0.0
2017-05-03 08:00:00,0.949429422,0.0
2017-05-04 08:00:00,0.9470710999999999,0.0
2017-05-05 08:00:00,0.941153027,0.0
2017-05-06 08:00:00,0.7843441,0.0
2017-05-07 08:00:00,0.812910417,0.0
2017-05-08 08:00:00,0.9618185690000001,0.0
2017-05-09 08:00:00,0.934905861,0.0
2017-05-10 08:00:00,0.962752838,0.0
2017-05-11 08:00:00,0.973181037,0.0
2017-05-12 08:00:00,0.9695528840000001,0.0
2017-05-13 08:00:00,0.963960562,0.0
2017-05-14 08:00:00,0.9657673859999999,0.0
2017-05-15 08:00:00,0.890121238,0.0
2017-05-16 08:00:00,0.9478552659999999,0.0
2017-05-17 08:00:00,,0.0
2017-05-18 08:00:00,0.970069014,0.0
2017-05-19 08:00:00,0.958774812,0.0
2017-05-20 08:00:00,0.97872982,0.0
2017-05-21 08:00:00,0.9752122540000001,0.0
2017-05-22 08:00:00,0.973019856,0.0
2017-05-23 08:00:00,0.969591865,0.0
2017-05-24 08:00:00,0.929985697,0.0
2017-05-25 08:00:00,0.912396475,0.0
2017-05-26 08:00:00,0.9259120270000001,0.0
2017-05-27 08:00:00,0.950774782,0.0
2017-05-28 08:00:00,0.961308577,0.0
2017-05-29 08:00:00,0.9472138459999999,0.0
2017-05-30 08:00:00,0.9401864759999999,0.0
2017-05-31 08:00:00,0.921448395,0.0
2017-06-01 08:00:00,0.933012363,0.0
2017-06-02 08:00:00,0.955120833,0.0
2017-06-03 08:00:00,0.95377614,0.0
2017-06-04 08:00:00,0.9428449529999999,0.0
2017-06-05 08:00:00,0.946428376,0.0
2017-06-06 08:00:00,0.942103169,0.0
2017-06-07 08:00:00,0.9398299729999999,0.0
2017-06-08 08:00:00,0.918110822,0.0
2017-06-09 08:00:00,0.936871729,0.0
2017-06-10 08:00:00,0.897286858,0.0
2017-06-11 08:00:00,0.853377773,0.0
2017-06-12 08:00:00,0.930824249,0.0
2017-06-13 08:00:00,0.9325225079999999,0.0
2017-06-14 08:00:00,0.9238501840000001,0.0
2017-06-15 08:00:00,0.935274718,0.0
2017-06-16 08:00:00,0.934582212,0.0
2017-06-17 08:00:00,0.9331925640000001,0.0
2017-06-18 08:00:00,0.9324041999999999,0.0
2017-06-19 08:00:00,0.929627483,0.0
2017-06-20 08:00:00,0.929191875,0.0
2017-06-21 08:00:00,0.9297866370000001,0.0
2017-06-22 08:00:00,0.92545297,0.0
2017-06-23 08:00:00,0.917979112,0.0
2017-06-24 08:00:00,0.9170219359999999,0.0
2017-06-25 08:00:00,0.9167879179999999,0.0
2017-06-26 08:00:00,0.91940765,0.0
2017-06-27 08:00:00,0.920161718,0.0
2017-06-28 08:00:00,0.914139991,0.0
2017-06-29 08:00:00,0.913939572,0.0
2017-06-30 08:00:00,0.9102686190000001,0.0
2017-07-01 08:00:00,0.9098235659999999,0.0
2017-07-02 08:00:00,0.910548927,0.0
2017-07-03 08:00:00,0.91002655,0.0
2017-07-04 08:00:00,0.912643781,0.0
2017-07-05 08:00:00,0.907106607,0.0
2017-07-06 08:00:00,0.905749389,0.0
2017-07-07 08:00:00,0.9114343079999999,0.0
2017-07-08 08:00:00,0.905381627,0.0
2017-07-09 08:00:00,0.90194303,0.0
2017-07-10 08:00:00,0.903334467,0.0
2017-07-11 08:00:00,0.900905253,0.0
2017-07-12 08:00:00,0.900731313,0.0
2017-07-13 08:00:00,0.9045561540000001,0.0
2017-07-14 08:00:00,0.901098409,0.0
2017-07-15 08:00:00,0.8876468670000001,0.0
2017-07-16 08:00:00,0.9030167570000001,0.0
2017-07-17 08:00:00,0.8932805979999999,0.0
2017-07-18 08:00:00,0.8970966690000001,0.0
2017-07-19 08:00:00,0.871978247,0.0
2017-07-20 08:00:00,0.888785728,0.0
2017-07-21 08:00:00,0.885922696,0.0
2017-07-22 08:00:00,0.886617291,0.0
2017-07-23 08:00:00,0.884332731,0.0
2017-07-24 08:00:00,0.863740183,0.0
2017-07-25 08:00:00,0.8785555420000001,0.0
2017-07-26 08:00:00,0.881962247,0.0
2017-07-27 08:00:00,0.8781220999999999,0.0
2017-07-28 08:00:00,0.876983471,0.0
2017-07-29 08:00:00,0.877942938,0.0
2017-07-30 08:00:00,0.875276927,0.0
2017-07-31 08:00:00,0.874100236,0.0
2017-08-01 08:00:00,0.875228305,0.0
2017-08-02 08:00:00,0.913170906,1.0
2017-08-03 08:00:00,0.93203838,1.0
2017-08-04 08:00:00,0.929298944,0.0
2017-08-05 08:00:00,0.9270975379999999,0.0
2017-08-06 08:00:00,0.9311331740000001,0.0
2017-08-07 08:00:00,0.9303619959999999,0.0
2017-08-08 08:00:00,0.928945,0.0
2017-08-09 08:00:00,0.9257181329999999,0.0
2017-08-10 08:00:00,0.919664162,0.0
2017-08-11 08:00:00,0.917994269,0.0
2017-08-12 08:00:00,0.9195680829999999,0.0
2017-08-13 08:00:00,0.91587225,0.0
2017-08-14 08:00:00,0.9088731040000001,0.0
2017-08-15 08:00:00,0.8797835509999999,0.0
2017-08-16 08:00:00,0.896913448,0.0
2017-08-17 08:00:00,0.907015035,0.0
2017-08-18 08:00:00,0.906745389,0.0
2017-08-19 08:00:00,0.906458497,0.0
2017-08-20 08:00:00,0.900699515,0.0
2017-08-21 08:00:00,0.8921005879999999,0.0
2017-08-22 08:00:00,0.9019198979999999,0.0
2017-08-23 08:00:00,0.8948669290000001,0.0
2017-08-24 08:00:00,0.905111702,0.0
2017-08-25 08:00:00,0.89799703,0.0
2017-08-26 08:00:00,0.898297455,0.0
2017-08-27 08:00:00,0.89301523,0.0
2017-08-28 08:00:00,0.904824162,0.0
2017-08-29 08:00:00,0.8991724170000001,0.0
2017-08-30 08:00:00,0.8925559679999999,0.0
2017-08-31 08:00:00,0.866136745,0.0
2017-09-01 08:00:00,0.904564824,1.0
2017-09-02 08:00:00,0.934167595,1.0
2017-09-03 08:00:00,0.90279256,1.0
2017-09-04 08:00:00,0.957289759,1.0
2017-09-05 08:00:00,0.9614489490000001,0.0
2017-09-06 08:00:00,0.954750178,0.0
2017-09-07 08:00:00,0.963295282,0.0
2017-09-08 08:00:00,0.95117895,0.0
2017-09-09 08:00:00,0.930102682,0.0
2017-09-10 08:00:00,0.950572832,0.0
2017-09-11 08:00:00,0.942621299,0.0
2017-09-12 08:00:00,0.91319247,0.0
2017-09-13 08:00:00,0.943173322,0.0
2017-09-14 08:00:00,0.9148191990000001,0.0
2017-09-15 08:00:00,0.937239253,0.0
2017-09-16 08:00:00,0.9232897309999999,0.0
2017-09-17 08:00:00,0.92532238,0.0
2017-09-18 08:00:00,0.933787978,0.0
2017-09-19 08:00:00,0.930149397,0.0
2017-09-20 08:00:00,0.9002855120000001,0.0
2017-09-21 08:00:00,0.830091563,0.0
2017-09-22 08:00:00,0.9308918959999999,0.0
2017-09-23 08:00:00,0.9331995909999999,0.0
2017-09-24 08:00:00,0.9111340240000001,0.0
2017-09-25 08:00:00,0.912391263,0.0
2017-09-26 08:00:00,0.9107245709999999,0.0
2017-09-27 08:00:00,0.9343614090000001,0.0
2017-09-28 08:00:00,0.9405537540000001,0.0
2017-09-29 08:00:00,0.940043599,0.0
2017-09-30 08:00:00,0.9374037690000001,0.0
2017-10-01 08:00:00,0.933246097,0.0
2017-10-02 08:00:00,0.926618295,0.0
2017-10-03 08:00:00,0.9267979129999999,0.0
2017-10-04 08:00:00,0.9325469340000001,0.0
2017-10-05 08:00:00,0.9350436959999999,0.0
2017-10-06 08:00:00,0.915933641,0.0
2017-10-07 08:00:00,0.943538352,0.0
2017-10-08 08:00:00,0.9389571729999999,0.0
2017-10-09 08:00:00,0.931923195,0.0
2017-10-10 08:00:00,0.950844198,0.0
2017-10-11 08:00:00,0.950038395,0.0
2017-10-12 08:00:00,0.945247768,0.0
2017-10-13 08:00:00,0.951478169,0.0
2017-10-14 08:00:00,0.9306647990000001,0.0
2017-10-15 08:00:00,0.9364847040000001,0.0
2017-10-16 08:00:00,0.942741273,0.0
2017-10-17 08:00:00,0.95161755,0.0
2017-10-18 08:00:00,0.945365329,0.0
2017-10-19 08:00:00,0.938022531,0.0
2017-10-20 08:00:00,0.874317404,0.0
2017-10-21 08:00:00,0.920426869,0.0
2017-10-22 08:00:00,0.930191271,0.0
2017-10-23 08:00:00,0.9147879720000001,0.0
2017-10-24 08:00:00,0.924858143,0.0
2017-10-25 08:00:00,0.940913097,0.0
2017-10-26 08:00:00,0.9468280859999999,0.0
2017-10-27 08:00:00,0.944494507,0.0
2017-10-28 08:00:00,0.9440917990000001,0.0
2017-10-29 08:00:00,0.94863394,0.0
2017-10-30 08:00:00,0.822303406,0.0
2017-10-31 08:00:00,0.9078172640000001,0.0
2017-11-01 08:00:00,0.932566804,0.0
2017-11-02 08:00:00,0.929740405,0.0
2017-11-03 08:00:00,0.943985854,0.0
2017-11-04 08:00:00,0.928657609,0.0
2017-11-05 08:00:00,0.9196801990000001,0.0
2017-11-06 08:00:00,0.930900483,0.0
2017-11-07 08:00:00,0.9080875620000001,0.0
2017-11-08 08:00:00,0.9182874390000001,0.0
2017-11-09 08:00:00,0.9138155090000001,0.0
2017-11-10 08:00:00,0.8844012729999999,0.0
2017-11-11 08:00:00,0.917447412,0.0
2017-11-12 08:00:00,0.920727702,0.0
2017-11-13 08:00:00,0.91428531,0.0
2017-11-14 08:00:00,0.909719665,0.0
2017-11-15 08:00:00,0.91219572,0.0
2017-11-16 08:00:00,0.935338343,0.0
2017-11-17 08:00:00,0.899304267,0.0
2017-11-18 08:00:00,0.880601677,0.0
2017-11-19 08:00:00,0.89780239,0.0
2017-11-20 08:00:00,0.8945808820000001,0.0
2017-11-21 08:00:00,0.898529868,0.0
2017-11-22 08:00:00,0.909483026,0.0
2017-11-23 08:00:00,0.917998433,0.0
2017-11-24 08:00:00,0.909629413,0.0
2017-11-25 08:00:00,0.906401492,0.0
2017-11-26 08:00:00,0.90415622,0.0
2017-11-27 08:00:00,0.8529418790000001,0.0
2017-11-28 08:00:00,0.9295930459999999,0.0
2017-11-29 08:00:00,0.916793847,0.0
2017-11-30 08:00:00,0.929766517,0.0
2017-12-01 08:00:00,0.9260993409999999,0.0
2017-12-02 08:00:00,0.9230226340000001,0.0
2017-12-03 08:00:00,0.91305769,0.0
2017-12-04 08:00:00,0.893282017,0.0
2017-12-05 08:00:00,0.9849593609999999,1.0
2017-12-06 08:00:00,0.991404046,0.0
2017-12-07 08:00:00,0.991581692,0.0
2017-12-08 08:00:00,0.998814047,0.0
2017-12-09 08:00:00,0.987939876,0.0
2017-12-10 08:00:00,0.988038723,0.0
2017-12-11 08:00:00,1.018390262,0.0
2017-12-12 08:00:00,1.0130861290000002,0.0
2017-12-13 08:00:00,1.016101589,0.0
2017-12-14 08:00:00,0.9963735840000001,0.0
2017-12-15 08:00:00,1.014337757,0.0
2017-12-16 08:00:00,0.939789037,0.0
2017-12-17 08:00:00,0.9882875259999999,0.0
2017-12-18 08:00:00,1.015628157,0.0
2017-12-19 08:00:00,1.011982717,0.0
2017-12-20 08:00:00,1.006388632,0.0
2017-12-21 08:00:00,0.963917784,0.0
2017-12-22 08:00:00,0.988662927,0.0
2017-12-23 08:00:00,0.958291285,0.0
2017-12-24 08:00:00,0.985008122,0.0
2017-12-25 08:00:00,0.986180762,0.0
2017-12-26 08:00:00,0.988441151,0.0
2017-12-27 08:00:00,0.99659327,0.0
2017-12-28 08:00:00,0.994691089,0.0
2017-12-29 08:00:00,0.9970888859999999,0.0
2017-12-30 08:00:00,0.998665974,0.0
2017-12-31 08:00:00,0.973627806,0.0
2018-01-01 08:00:00,0.996156286,0.0
2018-01-02 08:00:00,0.996588768,0.0
2018-01-03 08:00:00,0.9185278729999999,0.0
2018-01-04 08:00:00,1.00083245,0.0
2018-01-05 08:00:00,0.9911410279999999,0.0
2018-01-06 08:00:00,0.980841324,0.0
2018-01-07 08:00:00,0.943252085,0.0
2018-01-08 08:00:00,,0.0
2018-01-09 08:00:00,0.8492776759999999,0.0
2018-01-10 08:00:00,0.918096015,0.0
2018-01-11 08:00:00,0.9678897479999999,0.0
2018-01-12 08:00:00,0.9705989140000001,0.0
2018-01-13 08:00:00,0.956994188,0.0
2018-01-14 08:00:00,0.9687109629999999,0.0
2018-01-15 08:00:00,0.9701917059999999,0.0
2018-01-16 08:00:00,0.95786876,0.0
2018-01-17 08:00:00,0.959822079,0.0
2018-01-18 08:00:00,0.961299844,0.0
2018-01-19 08:00:00,0.9547826559999999,0.0
2018-01-20 08:00:00,0.903007452,0.0
2018-01-21 08:00:00,0.9600885840000001,0.0
2018-01-22 08:00:00,0.963136421,0.0
2018-01-23 08:00:00,0.954123938,0.0
2018-01-24 08:00:00,0.976339579,0.0
2018-01-25 08:00:00,0.9180994659999999,0.0
2018-01-26 08:00:00,0.9483460090000001,0.0
2018-01-27 08:00:00,0.947190465,0.0
2018-01-28 08:00:00,0.946998894,0.0
2018-01-29 08:00:00,0.954843115,0.0
2018-01-30 08:00:00,0.961254739,0.0
2018-01-31 08:00:00,0.9692667359999999,0.0
2018-02-01 08:00:00,0.96997816,0.0
2018-02-02 08:00:00,0.9631815429999999,0.0
2018-02-03 08:00:00,0.959867328,0.0
2018-02-04 08:00:00,0.966574137,0.0
2018-02-05 08:00:00,0.962694505,0.0
2018-02-06 08:00:00,0.946263009,0.0
2018-02-07 08:00:00,0.94955625,0.0
2018-02-08 08:00:00,0.9630671129999999,0.0
2018-02-09 08:00:00,0.966229599,0.0
2018-02-10 08:00:00,0.933272655,0.0
2018-02-11 08:00:00,0.960788905,0.0
2018-02-12 08:00:00,0.930177901,0.0
2018-02-13 08:00:00,0.934935387,0.0
2018-02-14 08:00:00,0.913680292,0.0
2018-02-15 08:00:00,0.937513917,0.0
2018-02-16 08:00:00,0.954018397,0.0
2018-02-17 08:00:00,0.958303105,0.0
2018-02-18 08:00:00,0.9551242520000001,0.0
2018-02-19 08:00:00,0.94185949,0.0
2018-02-20 08:00:00,0.920022442,0.0
2018-02-21 08:00:00,0.948339921,0.0
2018-02-22 08:00:00,0.848826979,0.0
2018-02-23 08:00:00,0.9294649770000001,0.0
2018-02-24 08:00:00,0.952987475,0.0
2018-02-25 08:00:00,0.9504100259999999,0.0
2018-02-26 08:00:00,0.9560853290000001,0.0
2018-02-27 08:00:00,0.948033861,0.0
2018-02-28 08:00:00,0.95667455,0.0
2018-03-01 08:00:00,0.95655163,0.0
2018-03-02 08:00:00,0.8562175259999999,0.0
2018-03-03 08:00:00,0.860307418,0.0
2018-03-04 08:00:00,0.954046683,0.0
2018-03-05 08:00:00,0.945632713,0.0
2018-03-06 08:00:00,0.955427672,0.0
2018-03-07 08:00:00,0.96656763,0.0
2018-03-08 08:00:00,0.9519383440000001,0.0
2018-03-09 08:00:00,0.966677901,0.0
2018-03-10 08:00:00,0.768219401,0.0
2018-03-11 08:00:00,0.932053017,0.0
2018-03-12 08:00:00,0.9660486229999999,0.0
2018-03-13 08:00:00,0.954487675,0.0
2018-03-14 08:00:00,0.941433799,0.0
2018-03-15 08:00:00,0.904493834,0.0
2018-03-16 08:00:00,0.8795210640000001,0.0
2018-03-17 08:00:00,0.965155671,0.0
2018-03-18 08:00:00,0.9438731570000001,0.0
2018-03-19 08:00:00,0.9317733909999999,0.0
2018-03-20 08:00:00,0.9308573729999999,0.0
2018-03-21 08:00:00,0.8878248879999999,0.0
2018-03-22 08:00:00,,0.0
2018-03-23 08:00:00,0.887276915,0.0
2018-03-24 08:00:00,0.87466882,0.0
2018-03-25 08:00:00,0.924695417,0.0
2018-03-26 08:00:00,0.931441462,0.0
2018-03-27 08:00:00,0.9402272290000001,0.0
2018-03-28 08:00:00,0.961211716,0.0
2018-03-29 08:00:00,0.96242156,0.0
2018-03-30 08:00:00,0.9620114670000001,0.0
2018-03-31 08:00:00,0.9607083909999999,0.0
2018-04-01 08:00:00,0.960508928,0.0
2018-04-02 08:00:00,0.910600352,0.0
2018-04-03 08:00:00,0.94718328,0.0
2018-04-04 08:00:00,0.9593360479999999,0.0
2018-04-05 08:00:00,0.933776726,0.0
2018-04-06 08:00:00,0.946580484,0.0
2018-04-07 08:00:00,0.934474296,0.0
2018-04-08 08:00:00,0.93102977,0.0
2018-04-09 08:00:00,0.9548074959999999,0.0
2018-04-10 08:00:00,0.953952922,0.0
2018-04-11 08:00:00,0.954759045,0.0
2018-04-12 08:00:00,0.903926118,0.0
2018-04-13 08:00:00,0.933874628,0.0
2018-04-14 08:00:00,0.9564270979999999,0.0
2018-04-15 08:00:00,0.950698982,0.0
2018-04-16 08:00:00,0.924265302,0.0
2018-04-17 08:00:00,0.926213365,0.0
2018-04-18 08:00:00,0.9534067340000001,0.0
2018-04-19 08:00:00,0.854353177,0.0
2018-04-20 08:00:00,0.944199899,0.0
2018-04-21 08:00:00,0.955922568,0.0
2018-04-22 08:00:00,0.949776684,0.0
2018-04-23 08:00:00,0.952186257,0.0
2018-04-24 08:00:00,0.930653643,0.0
2018-04-25 08:00:00,0.950689641,0.0
2018-04-26 08:00:00,0.947019595,0.0
2018-04-27 08:00:00,0.938859833,0.0
2018-04-28 08:00:00,0.94915658,0.0
2018-04-29 08:00:00,0.9069352740000001,0.0
2018-04-30 08:00:00,0.930331465,0.0
2018-05-01 08:00:00,0.814002488,0.0
2018-05-02 08:00:00,0.8586377340000001,0.0
2018-05-03 08:00:00,0.961680083,0.0
2018-05-04 08:00:00,0.96389367,0.0
2018-05-05 08:00:00,0.9671405740000001,0.0
2018-05-06 08:00:00,0.9468594859999999,0.0
2018-05-07 08:00:00,0.9712268829999999,0.0
2018-05-08 08:00:00,0.959125146,0.0
2018-05-09 08:00:00,0.96282257,0.0
2018-05-10 08:00:00,0.955946561,0.0
2018-05-11 08:00:00,0.897016822,0.0
2018-05-12 08:00:00,0.9205847220000001,0.0
2018-05-13 08:00:00,0.8840862070000001,0.0
2018-05-14 08:00:00,0.9514659040000001,0.0
2018-05-15 08:00:00,0.965458085,0.0
2018-05-16 08:00:00,0.953992829,0.0
2018-05-17 08:00:00,0.945371135,0.0
2018-05-18 08:00:00,0.9310879440000001,0.0
2018-05-19 08:00:00,0.9048332659999999,0.0
2018-05-20 08:00:00,0.9226315509999999,0.0
2018-05-21 08:00:00,0.881420164,0.0
2018-05-22 08:00:00,0.9226380240000001,0.0
2018-05-23 08:00:00,0.9210364440000001,0.0
2018-05-24 08:00:00,0.909307648,0.0
2018-05-25 08:00:00,0.898456155,0.0
2018-05-26 08:00:00,0.90272975,0.0
2018-05-27 08:00:00,0.9273322,0.0
2018-05-28 08:00:00,0.947917903,0.0
2018-05-29 08:00:00,0.9293446209999999,0.0
2018-05-30 08:00:00,0.9221321109999999,0.0
2018-05-31 08:00:00,0.9127366440000001,0.0
2018-06-01 08:00:00,0.949230308,0.0
2018-06-02 08:00:00,0.9529906029999999,0.0
2018-06-03 08:00:00,0.9518408079999999,0.0
2018-06-04 08:00:00,0.94612174,0.0
2018-06-05 08:00:00,0.934318963,0.0
2018-06-06 08:00:00,0.94028957,0.0
2018-06-07 08:00:00,0.940526671,0.0
2018-06-08 08:00:00,0.9458677109999999,0.0
2018-06-09 08:00:00,0.9425754890000001,0.0
2018-06-10 08:00:00,0.9325389559999999,0.0
2018-06-11 08:00:00,0.937495099,0.0
2018-06-12 08:00:00,0.935841996,0.0
2018-06-13 08:00:00,0.937748688,0.0
2018-06-14 08:00:00,0.9393454040000001,0.0
2018-06-15 08:00:00,0.928438148,0.0
2018-06-16 08:00:00,0.910082348,0.0
2018-06-17 08:00:00,0.888084821,0.0
2018-06-18 08:00:00,0.920621433,0.0
2018-06-19 08:00:00,0.930229327,0.0
2018-06-20 08:00:00,0.929126322,0.0
2018-06-21 08:00:00,0.927559334,0.0
2018-06-22 08:00:00,0.925615532,0.0
2018-06-23 08:00:00,0.924058387,0.0
2018-06-24 08:00:00,0.913091878,0.0
2018-06-25 08:00:00,0.920385859,0.0
2018-06-26 08:00:00,0.923551456,0.0
2018-06-27 08:00:00,0.921608115,0.0
2018-06-28 08:00:00,0.916923705,0.0
2018-06-29 08:00:00,0.908096118,0.0
2018-06-30 08:00:00,0.9062673659999999,0.0
2018-07-01 08:00:00,0.912367725,0.0
2018-07-02 08:00:00,0.9134682940000001,0.0
2018-07-03 08:00:00,0.904291343,0.0
2018-07-04 08:00:00,0.909913601,0.0
2018-07-05 08:00:00,0.91029381,0.0
2018-07-06 08:00:00,0.915966767,0.0
2018-07-07 08:00:00,0.91504655,0.0
2018-07-08 08:00:00,0.961693639,1.0
2018-07-09 08:00:00,0.9619176009999999,0.0
2018-07-10 08:00:00,0.958247933,0.0
2018-07-11 08:00:00,0.9519553940000001,0.0
2018-07-12 08:00:00,0.952347937,0.0
2018-07-13 08:00:00,0.9550374490000001,0.0
2018-07-14 08:00:00,0.957943938,0.0
2018-07-15 08:00:00,0.955734902,0.0
2018-07-16 08:00:00,0.9528789940000001,0.0
2018-07-17 08:00:00,0.949865396,0.0
2018-07-18 08:00:00,0.93038627,0.0
2018-07-19 08:00:00,0.946843702,0.0
2018-07-20 08:00:00,0.945603836,0.0
2018-07-21 08:00:00,0.9440005140000001,0.0
2018-07-22 08:00:00,0.9442370990000001,0.0
2018-07-23 08:00:00,0.944031223,0.0
2018-07-24 08:00:00,0.9465733620000001,0.0
2018-07-25 08:00:00,0.9451536770000001,0.0
2018-07-26 08:00:00,0.938305336,0.0
2018-07-27 08:00:00,0.97707357,1.0
2018-07-28 08:00:00,0.975033114,0.0
2018-07-29 08:00:00,0.968010569,0.0
2018-07-30 08:00:00,0.960875622,0.0
2018-07-31 08:00:00,0.9601611529999999,0.0
2018-08-01 08:00:00,0.9623610490000001,0.0
2018-08-02 08:00:00,0.9609425359999999,0.0
2018-08-03 08:00:00,0.961444518,0.0
2018-08-04 08:00:00,0.964541723,0.0
2018-08-05 08:00:00,0.961908792,0.0
2018-08-06 08:00:00,0.9572095820000001,0.0
2018-08-07 08:00:00,0.960221518,0.0
2018-08-08 08:00:00,0.964413801,0.0
2018-08-09 08:00:00,0.956365748,0.0
2018-08-10 08:00:00,0.954291275,0.0
2018-08-11 08:00:00,0.9503474479999999,0.0
2018-08-12 08:00:00,0.9511283070000001,0.0
2018-08-13 08:00:00,0.947333093,0.0
2018-08-14 08:00:00,0.946605423,0.0
2018-08-15 08:00:00,0.9440386279999999,0.0
2018-08-16 08:00:00,0.942625967,0.0
2018-08-17 08:00:00,0.9417686820000001,0.0
2018-08-18 08:00:00,0.9383870609999999,0.0
2018-08-19 08:00:00,0.93829805,0.0
2018-08-20 08:00:00,0.936614253,0.0
2018-08-21 08:00:00,0.933785558,0.0
2018-08-22 08:00:00,0.935128098,0.0
2018-08-23 08:00:00,0.933403375,0.0
2018-08-24 08:00:00,0.9297407209999999,0.0
2018-08-25 08:00:00,0.9313541409999999,0.0
2018-08-26 08:00:00,0.9250252290000001,0.0
2018-08-27 08:00:00,0.9218949890000001,0.0
2018-08-28 08:00:00,0.91928444,0.0
2018-08-29 08:00:00,0.910713408,0.0
2018-08-30 08:00:00,0.920627313,0.0
2018-08-31 08:00:00,0.919859105,0.0
2018-09-01 08:00:00,0.919509617,0.0
2018-09-02 08:00:00,0.908550593,0.0
2018-09-03 08:00:00,0.9180024240000001,0.0
2018-09-04 08:00:00,0.9187212109999999,0.0
2018-09-05 08:00:00,0.911611965,0.0
2018-09-06 08:00:00,0.9136369409999999,0.0
2018-09-07 08:00:00,0.912219126,0.0
2018-09-08 08:00:00,0.91284634,0.0
2018-09-09 08:00:00,0.892162171,0.0
2018-09-10 08:00:00,0.910164365,0.0
2018-09-11 08:00:00,0.910002731,0.0
2018-09-12 08:00:00,0.9070332729999999,0.0
2018-09-13 08:00:00,0.905897837,0.0
2018-09-14 08:00:00,0.905025034,0.0
2018-09-15 08:00:00,0.903611265,0.0
2018-09-16 08:00:00,0.902894781,0.0
2018-09-17 08:00:00,0.901220282,0.0
2018-09-18 08:00:00,0.892407993,0.0
2018-09-19 08:00:00,0.8919696970000001,0.0
2018-09-20 08:00:00,0.894314108,0.0
2018-09-21 08:00:00,0.894358359,0.0
2018-09-22 08:00:00,0.89053251,0.0
2018-09-23 08:00:00,0.885013355,0.0
2018-09-24 08:00:00,0.883566594,0.0
2018-09-25 08:00:00,0.874603083,0.0
2018-09-26 08:00:00,0.8875869270000001,0.0
2018-09-27 08:00:00,0.882832768,0.0
2018-09-28 08:00:00,0.88301212,0.0
2018-09-29 08:00:00,0.87832157,0.0
2018-09-30 08:00:00,0.87027755,0.0
2018-10-01 08:00:00,0.8723865909999999,0.0
2018-10-02 08:00:00,0.8627075590000001,0.0
2018-10-03 08:00:00,0.865358099,0.0
2018-10-04 08:00:00,0.862442177,0.0
2018-10-05 08:00:00,0.8772241,0.0
2018-10-06 08:00:00,0.821329092,0.0
2018-10-07 08:00:00,0.8742034609999999,0.0
2018-10-08 08:00:00,0.880956168,0.0
2018-10-09 08:00:00,0.8689125520000001,0.0
2018-10-10 08:00:00,0.8678031690000001,0.0
2018-10-11 08:00:00,0.8753280609999999,0.0
2018-10-12 08:00:00,0.859674527,0.0
2018-10-13 08:00:00,,1.0
2018-10-14 08:00:00,0.949047913,1.0
2018-10-15 08:00:00,0.9417053670000001,0.0
2018-10-16 08:00:00,0.9352902759999999,0.0
2018-10-17 08:00:00,0.930362019,0.0
2018-10-18 08:00:00,0.933615582,0.0
2018-10-19 08:00:00,0.9365977609999999,0.0
2018-10-20 08:00:00,0.9385953859999999,0.0
2018-10-21 08:00:00,0.961314847,0.0
2018-10-22 08:00:00,0.956713115,0.0
2018-10-23 08:00:00,0.957020415,0.0
2018-10-24 08:00:00,0.954586962,0.0
2018-10-25 08:00:00,0.951770063,0.0
2018-10-26 08:00:00,0.954863144,0.0
2018-10-27 08:00:00,0.954487029,0.0
2018-10-28 08:00:00,0.9538356240000001,0.0
2018-10-29 08:00:00,0.941283278,0.0
2018-10-30 08:00:00,0.938985457,0.0